| time (UTC) | temp F | wind direction | speed MPH | gust MPH | rain 1hr in | rain 24hr in | rain mn in | humidity % | barometer mb |
| 20260506173515 | 44 | 313 | 2.0 | 10.0 | 0.00 | 0.00 | 0.00 | 48 | 1016.2 |
| 20260506173037 | 43 | 227 | 4.0 | 11.0 | 0.00 | 0.00 | 0.00 | 50 | 1016.2 |
| 20260506172518 | 43 | 299 | 5.0 | 11.0 | 0.00 | 0.00 | 0.00 | 50 | 1016.3 |
| 20260506172017 | 43 | 296 | 5.0 | 15.0 | 0.00 | 0.00 | 0.00 | 49 | 1016.2 |
| 20260506171550 | 43 | 263 | 5.0 | 15.0 | 0.00 | 0.00 | 0.00 | 50 | 1016.3 |
| 20260506171017 | 43 | 234 | 7.0 | 15.0 | 0.00 | 0.00 | 0.00 | 49 | 1016.2 |
| 20260506170517 | 42 | 278 | 7.0 | 15.0 | 0.00 | 0.00 | 0.00 | 49 | 1016.4 |
| 20260506170039 | 43 | 355 | 4.0 | 11.0 | 0.00 | 0.00 | 0.00 | 51 | 1016.4 |
| 20260506165517 | 43 | 227 | 4.0 | 10.0 | 0.00 | 0.00 | 0.00 | 51 | 1016.4 |
| 20260506165018 | 43 | 23 | 3.0 | 12.0 | 0.00 | 0.00 | 0.00 | 51 | 1016.3 |
| 20260506164535 | 43 | 291 | 4.0 | 12.0 | 0.00 | 0.00 | 0.00 | 49 | 1016.4 |
| 20260506164017 | 43 | 290 | 4.0 | 14.0 | 0.00 | 0.00 | 0.00 | 50 | 1016.3 |
| 20260506163517 | 43 | 295 | 4.0 | 14.0 | 0.00 | 0.00 | 0.00 | 51 | 1016.3 |
| 20260506163042 | 43 | 232 | 5.0 | 10.0 | 0.00 | 0.00 | 0.00 | 50 | 1016.3 |
| 20260506162517 | 43 | 307 | 5.0 | 13.0 | 0.00 | 0.00 | 0.00 | 50 | 1016.3 |
| 20260506162018 | 43 | 267 | 2.0 | 13.0 | 0.00 | 0.00 | 0.00 | 51 | 1016.3 |
| 20260506161535 | 43 | 0 | 7.0 | 14.0 | 0.00 | 0.00 | 0.00 | 50 | 1016.3 |
| 20260506161015 | 43 | 234 | 7.0 | 14.0 | 0.00 | 0.00 | 0.00 | 51 | 1016.3 |
| 20260506160518 | 43 | 280 | 6.0 | 14.0 | 0.00 | 0.00 | 0.00 | 52 | 1016.2 |
| 20260506160035 | 43 | 282 | 3.0 | 12.0 | 0.00 | 0.00 | 0.00 | 52 | 1016.2 |
| 20260506155517 | 43 | 280 | 5.0 | 12.0 | 0.00 | 0.00 | 0.00 | 50 | 1016.2 |
| 20260506155018 | 43 | 336 | 4.0 | 11.0 | 0.00 | 0.00 | 0.00 | 51 | 1016.2 |
| 20260506154537 | 44 | 342 | 4.0 | 10.0 | 0.00 | 0.00 | 0.00 | 52 | 1016.1 |
| 20260506154019 | 44 | 302 | 3.0 | 17.0 | 0.00 | 0.00 | 0.00 | 50 | 1016.0 |
| 20260506153518 | 44 | 332 | 7.0 | 17.0 | 0.00 | 0.00 | 0.00 | 48 | 1016.0 |
| 20260506153034 | 44 | 274 | 6.0 | 15.0 | 0.00 | 0.00 | 0.00 | 47 | 1016.0 |
| 20260506152517 | 45 | 341 | 7.0 | 15.0 | 0.00 | 0.00 | 0.00 | 48 | 1015.9 |
| 20260506152018 | 44 | 322 | 7.0 | 15.0 | 0.00 | 0.00 | 0.00 | 48 | 1016.0 |
| 20260506151537 | 44 | 257 | 5.0 | 17.0 | 0.00 | 0.00 | 0.00 | 48 | 1015.8 |
| 20260506151020 | 43 | 319 | 8.0 | 17.0 | 0.00 | 0.00 | 0.00 | 48 | 1015.9 |
| 20260506150518 | 43 | 269 | 8.0 | 15.0 | 0.00 | 0.00 | 0.00 | 50 | 1016.0 |
| 20260506150035 | 43 | 294 | 5.0 | 18.0 | 0.00 | 0.00 | 0.00 | 48 | 1016.0 |
| 20260506145521 | 43 | 283 | 7.0 | 18.0 | 0.00 | 0.00 | 0.00 | 48 | 1016.1 |
| 20260506145018 | 43 | 244 | 6.0 | 14.0 | 0.00 | 0.00 | 0.00 | 48 | 1016.1 |
| 20260506144536 | 43 | 274 | 5.0 | 12.0 | 0.00 | 0.00 | 0.00 | 49 | 1016.1 |
| 20260506144020 | 43 | 313 | 5.0 | 12.0 | 0.00 | 0.00 | 0.00 | 48 | 1016.1 |
| 20260506143518 | 44 | 289 | 4.0 | 11.0 | 0.00 | 0.00 | 0.00 | 51 | 1016.0 |
| 20260506143033 | 44 | 282 | 3.0 | 11.0 | 0.00 | 0.00 | 0.00 | 53 | 1016.0 |
| 20260506142518 | 44 | 270 | 3.0 | 11.0 | 0.00 | 0.00 | 0.00 | 57 | 1015.9 |
| 20260506142017 | 44 | 332 | 4.0 | 9.0 | 0.00 | 0.00 | 0.00 | 54 | 1016.0 |
| 20260506141533 | 43 | 215 | 3.0 | 12.0 | 0.00 | 0.00 | 0.00 | 58 | 1016.0 |
| 20260506141018 | 42 | 271 | 5.0 | 12.0 | 0.00 | 0.00 | 0.00 | 57 | 1016.0 |
| 20260506140520 | 41 | 265 | 3.0 | 9.0 | 0.00 | 0.00 | 0.00 | 58 | 1016.0 |
| 20260506140037 | 41 | 269 | 1.0 | 9.0 | 0.00 | 0.00 | 0.00 | 59 | 1016.0 |
| 20260506135517 | 40 | 280 | 2.0 | 11.0 | 0.00 | 0.00 | 0.00 | 58 | 1015.9 |
| 20260506135017 | 40 | 317 | 4.0 | 11.0 | 0.00 | 0.00 | 0.00 | 58 | 1015.9 |
| 20260506134535 | 40 | 307 | 2.0 | 11.0 | 0.00 | 0.00 | 0.00 | 58 | 1015.8 |
| 20260506134017 | 40 | 317 | 4.0 | 11.0 | 0.00 | 0.00 | 0.00 | 58 | 1015.8 |
| 20260506133517 | 40 | 331 | 4.0 | 12.0 | 0.00 | 0.00 | 0.00 | 59 | 1015.8 |
| 20260506133044 | 40 | 269 | 5.0 | 12.0 | 0.00 | 0.00 | 0.00 | 58 | 1015.8 |
| 20260506132518 | 40 | 269 | 3.0 | 12.0 | 0.00 | 0.00 | 0.00 | 62 | 1015.7 |
| 20260506132017 | 40 | 218 | 2.0 | 12.0 | 0.00 | 0.00 | 0.00 | 60 | 1015.7 |
| 20260506131536 | 40 | 280 | 3.0 | 11.0 | 0.00 | 0.00 | 0.00 | 61 | 1015.6 |
| 20260506131018 | 40 | 249 | 5.0 | 11.0 | 0.00 | 0.00 | 0.00 | 62 | 1015.5 |
| 20260506130519 | 39 | 281 | 5.0 | 11.0 | 0.00 | 0.00 | 0.00 | 63 | 1015.5 |
| 20260506130032 | 39 | 280 | 3.0 | 10.0 | 0.00 | 0.00 | 0.00 | 63 | 1015.4 |
| 20260506125517 | 38 | 231 | 4.0 | 10.0 | 0.00 | 0.00 | 0.00 | 64 | 1015.3 |
| 20260506125016 | 38 | 248 | 3.0 | 7.0 | 0.00 | 0.00 | 0.00 | 66 | 1015.3 |
| 20260506124531 | 37 | 217 | 2.0 | 8.0 | 0.00 | 0.00 | 0.00 | 65 | 1015.2 |
| 20260506124016 | 37 | 237 | 2.0 | 8.0 | 0.00 | 0.00 | 0.00 | 66 | 1015.4 |
| 20260506123516 | 37 | 289 | 3.0 | 7.0 | 0.00 | 0.00 | 0.00 | 66 | 1015.3 |
| 20260506123031 | 37 | 263 | 3.0 | 7.0 | 0.00 | 0.00 | 0.00 | 66 | 1015.3 |
| 20260506122517 | 37 | 276 | 2.0 | 8.0 | 0.00 | 0.00 | 0.00 | 67 | 1015.2 |
| 20260506122016 | 37 | 234 | 3.0 | 9.0 | 0.00 | 0.00 | 0.00 | 68 | 1015.2 |
| 20260506121536 | 36 | 251 | 4.0 | 9.0 | 0.00 | 0.00 | 0.00 | 68 | 1015.1 |
| 20260506121021 | 36 | 228 | 3.0 | 7.0 | 0.00 | 0.00 | 0.00 | 69 | 1015.0 |
| 20260506120517 | 36 | 240 | 3.0 | 7.0 | 0.00 | 0.00 | 0.00 | 70 | 1014.9 |
| 20260506120037 | 36 | 0 | 2.0 | 7.0 | 0.00 | 0.00 | 0.00 | 71 | 1014.9 |
| 20260506115519 | 35 | 257 | 1.0 | 6.0 | 0.00 | 0.00 | 0.00 | 70 | 1014.8 |
| 20260506115016 | 35 | 265 | 1.0 | 6.0 | 0.00 | 0.00 | 0.00 | 70 | 1014.7 |
| 20260506114533 | 35 | 290 | 1.0 | 4.0 | 0.00 | 0.00 | 0.00 | 71 | 1014.5 |
| 20260506114021 | 35 | 284 | 1.0 | 7.0 | 0.00 | 0.00 | 0.00 | 72 | 1014.6 |
| 20260506113516 | 35 | 0 | 1.0 | 7.0 | 0.00 | 0.00 | 0.00 | 72 | 1014.5 |
| 20260506113035 | 34 | 281 | 1.0 | 6.0 | 0.00 | 0.00 | 0.00 | 72 | 1014.6 |
| 20260506112516 | 34 | 0 | 0.0 | 6.0 | 0.00 | 0.00 | 0.00 | 73 | 1014.5 |
| 20260506112016 | 34 | 256 | 2.0 | 8.0 | 0.00 | 0.00 | 0.00 | 74 | 1014.6 |
| 20260506111534 | 34 | 242 | 2.0 | 8.0 | 0.00 | 0.00 | 0.00 | 74 | 1014.6 |
| 20260506111016 | 33 | 237 | 2.0 | 8.0 | 0.00 | 0.00 | 0.00 | 75 | 1014.6 |
| 20260506110518 | 33 | 234 | 3.0 | 8.0 | 0.00 | 0.00 | 0.00 | 75 | 1014.7 |
| 20260506110037 | 33 | 232 | 3.0 | 7.0 | 0.00 | 0.00 | 0.00 | 76 | 1014.6 |
| 20260506105519 | 33 | 244 | 3.0 | 7.0 | 0.00 | 0.00 | 0.00 | 76 | 1014.5 |
| 20260506105017 | 32 | 219 | 2.0 | 7.0 | 0.00 | 0.00 | 0.00 | 77 | 1014.5 |
| 20260506104537 | 32 | 229 | 2.0 | 6.0 | 0.00 | 0.00 | 0.00 | 78 | 1014.5 |
| 20260506104016 | 32 | 230 | 2.0 | 5.0 | 0.00 | 0.00 | 0.00 | 79 | 1014.4 |
| 20260506103517 | 31 | 223 | 1.0 | 4.0 | 0.00 | 0.00 | 0.00 | 78 | 1014.2 |
| 20260506103037 | 31 | 223 | 1.0 | 4.0 | 0.00 | 0.00 | 0.00 | 79 | 1014.1 |
| 20260506102517 | 31 | 222 | 0.0 | 4.0 | 0.00 | 0.00 | 0.00 | 79 | 1014.0 |
| 20260506102017 | 31 | 0 | 0.0 | 0.0 | 0.00 | 0.00 | 0.00 | 79 | 1014.0 |
| 20260506101544 | 31 | 0 | 0.0 | 0.0 | 0.00 | 0.00 | 0.00 | 79 | 1014.0 |
| 20260506101021 | 31 | 0 | 0.0 | 0.0 | 0.00 | 0.00 | 0.00 | 79 | 1014.1 |
| 20260506100516 | 31 | 0 | 0.0 | 0.0 | 0.00 | 0.00 | 0.00 | 79 | 1014.1 |
| 20260506100037 | 31 | 0 | 0.0 | 0.0 | 0.00 | 0.00 | 0.00 | 79 | 1014.1 |
| 20260506095516 | 31 | 0 | 0.0 | 0.0 | 0.00 | 0.00 | 0.00 | 80 | 1014.0 |
| 20260506095016 | 30 | 0 | 0.0 | 3.0 | 0.00 | 0.00 | 0.00 | 80 | 1014.1 |
| 20260506094536 | 30 | 0 | 1.0 | 3.0 | 0.00 | 0.00 | 0.00 | 80 | 1014.1 |
| 20260506094016 | 30 | 0 | 1.0 | 3.0 | 0.00 | 0.00 | 0.00 | 80 | 1014.1 |
| 20260506093516 | 30 | 289 | 2.0 | 3.0 | 0.00 | 0.00 | 0.00 | 80 | 1014.1 |
| 20260506093032 | 30 | 0 | 0.0 | 3.0 | 0.00 | 0.00 | 0.00 | 79 | 1014.2 |
| 20260506092517 | 30 | 0 | 1.0 | 3.0 | 0.00 | 0.00 | 0.00 | 79 | 1014.2 |
| 20260506092017 | 30 | 289 | 1.0 | 3.0 | 0.00 | 0.00 | 0.00 | 79 | 1014.2 |
| 20260506091532 | 31 | 289 | 1.0 | 3.0 | 0.00 | 0.00 | 0.00 | 78 | 1014.3 |
| 20260506091017 | 31 | 289 | 1.0 | 3.0 | 0.00 | 0.00 | 0.00 | 78 | 1014.1 |
| 20260506090516 | 31 | 289 | 1.0 | 3.0 | 0.00 | 0.00 | 0.00 | 78 | 1014.1 |
| 20260506090035 | 31 | 289 | 1.0 | 3.0 | 0.00 | 0.00 | 0.00 | 77 | 1014.0 |
| 20260506085516 | 31 | 0 | 0.0 | 0.0 | 0.00 | 0.00 | 0.00 | 77 | 1013.9 |
| 20260506085016 | 31 | 0 | 0.0 | 0.0 | 0.00 | 0.00 | 0.00 | 77 | 1014.0 |
| 20260506084539 | 31 | 0 | 0.0 | 0.0 | 0.00 | 0.00 | 0.00 | 76 | 1013.9 |
| 20260506084016 | 31 | 0 | 0.0 | 0.0 | 0.00 | 0.00 | 0.00 | 76 | 1014.0 |
| 20260506083521 | 32 | 0 | 0.0 | 0.0 | 0.00 | 0.00 | 0.00 | 76 | 1014.0 |
| 20260506083034 | 32 | 0 | 0.0 | 2.0 | 0.00 | 0.00 | 0.00 | 76 | 1014.1 |
| 20260506082516 | 32 | 0 | 0.0 | 3.0 | 0.00 | 0.00 | 0.00 | 75 | 1014.2 |
| 20260506082020 | 32 | 289 | 1.0 | 3.0 | 0.00 | 0.00 | 0.00 | 75 | 1014.1 |
| 20260506081536 | 32 | 289 | 2.0 | 3.0 | 0.00 | 0.00 | 0.00 | 74 | 1014.1 |
| 20260506081021 | 32 | 289 | 1.0 | 4.0 | 0.00 | 0.00 | 0.00 | 74 | 1014.0 |
| 20260506080517 | 33 | 290 | 2.0 | 4.0 | 0.00 | 0.00 | 0.00 | 73 | 1013.9 |
| 20260506073516 | 34 | 290 | 2.0 | 4.0 | 0.00 | 0.00 | 0.00 | 69 | 1013.8 |
| 20260506073036 | 34 | 290 | 3.0 | 5.0 | 0.00 | 0.00 | 0.00 | 67 | 1013.8 |
| 20260506072516 | 35 | 291 | 3.0 | 5.0 | 0.00 | 0.00 | 0.00 | 68 | 1013.8 |
| 20260506072019 | 35 | 291 | 3.0 | 4.0 | 0.00 | 0.00 | 0.00 | 68 | 1013.8 |
| 20260506071534 | 35 | 291 | 2.0 | 5.0 | 0.00 | 0.00 | 0.00 | 67 | 1013.8 |
| 20260506071016 | 35 | 292 | 2.0 | 5.0 | 0.00 | 0.00 | 0.00 | 67 | 1013.8 |
| 20260506070516 | 35 | 291 | 2.0 | 5.0 | 0.00 | 0.00 | 0.00 | 67 | 1013.9 |
| 20260506062515 | 37 | 0 | 1.0 | 4.0 | 0.00 | 0.00 | 0.00 | 64 | 1013.7 |
| 20260506062017 | 37 | 299 | 2.0 | 5.0 | 0.00 | 0.00 | 0.00 | 63 | 1013.7 |
| 20260506061532 | 37 | 299 | 2.0 | 5.0 | 0.00 | 0.00 | 0.00 | 63 | 1013.8 |
| 20260506061017 | 37 | 309 | 2.0 | 5.0 | 0.00 | 0.00 | 0.00 | 63 | 1013.7 |
| 20260506060517 | 37 | 288 | 2.0 | 4.0 | 0.00 | 0.00 | 0.00 | 63 | 1013.7 |
| 20260506051016 | 39 | 0 | 1.0 | 6.0 | 0.00 | 0.00 | 0.00 | 59 | 1013.0 |
| 20260506050518 | 39 | 282 | 1.0 | 5.0 | 0.00 | 0.00 | 0.00 | 58 | 1012.9 |
| 20260506045020 | 40 | 0 | 1.0 | 4.0 | 0.00 | 0.00 | 0.00 | 57 | 1012.8 |
| 20260506044537 | 40 | 310 | 0.0 | 4.0 | 0.00 | 0.00 | 0.00 | 56 | 1012.8 |
| 20260506044016 | 40 | 0 | 1.0 | 8.0 | 0.00 | 0.00 | 0.00 | 56 | 1012.9 |
| 20260506043518 | 40 | 294 | 2.0 | 8.0 | 0.00 | 0.00 | 0.00 | 55 | 1012.8 |
| 20260506043036 | 40 | 292 | 2.0 | 8.0 | 0.00 | 0.00 | 0.00 | 56 | 1012.8 |
| 20260506042522 | 40 | 324 | 2.0 | 6.0 | 0.00 | 0.00 | 0.00 | 55 | 1012.8 |
| 20260506042016 | 40 | 265 | 2.0 | 6.0 | 0.00 | 0.00 | 0.00 | 55 | 1012.7 |
| 20260506041535 | 40 | 250 | 1.0 | 9.0 | 0.00 | 0.00 | 0.00 | 55 | 1012.7 |
| 20260506041016 | 41 | 286 | 2.0 | 9.0 | 0.00 | 0.00 | 0.00 | 55 | 1012.7 |
| 20260506040516 | 41 | 280 | 2.0 | 7.0 | 0.00 | 0.00 | 0.00 | 55 | 1012.7 |
| 20260506040039 | 41 | 285 | 2.0 | 5.0 | 0.00 | 0.00 | 0.00 | 54 | 1012.6 |
| 20260506035517 | 41 | 276 | 0.0 | 6.0 | 0.00 | 0.00 | 0.00 | 54 | 1012.7 |
| 20260506035017 | 41 | 276 | 2.0 | 6.0 | 0.00 | 0.00 | 0.00 | 54 | 1012.6 |
| 20260506034531 | 41 | 273 | 2.0 | 6.0 | 0.00 | 0.00 | 0.00 | 54 | 1012.5 |
| 20260506034016 | 42 | 286 | 1.0 | 7.0 | 0.00 | 0.00 | 0.00 | 54 | 1012.5 |
| 20260506033516 | 42 | 0 | 2.0 | 7.0 | 0.00 | 0.00 | 0.00 | 53 | 1012.5 |
| 20260506033035 | 42 | 302 | 2.0 | 9.0 | 0.00 | 0.00 | 0.00 | 53 | 1012.5 |
| 20260506032516 | 42 | 300 | 3.0 | 9.0 | 0.00 | 0.00 | 0.00 | 52 | 1012.5 |
| 20260506032016 | 42 | 331 | 3.0 | 8.0 | 0.00 | 0.00 | 0.00 | 52 | 1012.4 |
| 20260506031535 | 42 | 316 | 2.0 | 8.0 | 0.00 | 0.00 | 0.00 | 52 | 1012.5 |
| 20260506031018 | 43 | 315 | 3.0 | 7.0 | 0.00 | 0.00 | 0.00 | 52 | 1012.4 |
| 20260506030522 | 43 | 0 | 2.0 | 7.0 | 0.00 | 0.00 | 0.00 | 51 | 1012.4 |
| 20260506030033 | 43 | 286 | 2.0 | 7.0 | 0.00 | 0.00 | 0.00 | 51 | 1012.3 |
| 20260506025517 | 43 | 281 | 2.0 | 7.0 | 0.00 | 0.00 | 0.00 | 50 | 1012.2 |
| 20260506025017 | 44 | 293 | 1.0 | 7.0 | 0.00 | 0.00 | 0.00 | 50 | 1012.1 |
| 20260506024534 | 44 | 342 | 1.0 | 11.0 | 0.00 | 0.00 | 0.00 | 51 | 1012.0 |
| 20260506024019 | 44 | 332 | 2.0 | 11.0 | 0.00 | 0.00 | 0.00 | 50 | 1011.9 |
| 20260506023519 | 44 | 338 | 2.0 | 9.0 | 0.00 | 0.00 | 0.00 | 49 | 1011.9 |
| 20260506023044 | 44 | 305 | 2.0 | 11.0 | 0.00 | 0.00 | 0.00 | 49 | 1011.9 |
| 20260506022516 | 44 | 324 | 4.0 | 11.0 | 0.00 | 0.00 | 0.00 | 49 | 1011.8 |
| 20260506022017 | 44 | 286 | 4.0 | 10.0 | 0.00 | 0.00 | 0.00 | 49 | 1011.7 |
| 20260506021535 | 44 | 330 | 2.0 | 6.0 | 0.00 | 0.00 | 0.00 | 49 | 1011.5 |
| 20260506021017 | 45 | 0 | 1.0 | 5.0 | 0.00 | 0.00 | 0.00 | 48 | 1011.5 |
| 20260506020516 | 45 | 315 | 1.0 | 5.0 | 0.00 | 0.00 | 0.00 | 48 | 1011.2 |
| 20260506020035 | 45 | 0 | 1.0 | 8.0 | 0.00 | 0.00 | 0.00 | 48 | 1011.2 |
| 20260506015516 | 45 | 338 | 1.0 | 9.0 | 0.00 | 0.00 | 0.00 | 47 | 1011.2 |
| 20260506015021 | 46 | 333 | 2.0 | 9.0 | 0.00 | 0.00 | 0.00 | 47 | 1011.1 |
| 20260506014534 | 46 | 280 | 1.0 | 7.0 | 0.00 | 0.00 | 0.00 | 46 | 1011.0 |
| 20260506014016 | 46 | 0 | 0.0 | 9.0 | 0.00 | 0.00 | 0.00 | 45 | 1010.9 |
| 20260506013516 | 46 | 294 | 3.0 | 9.0 | 0.00 | 0.00 | 0.00 | 44 | 1010.9 |
| 20260506013032 | 47 | 269 | 2.0 | 9.0 | 0.00 | 0.00 | 0.00 | 44 | 1010.8 |
| 20260506012516 | 47 | 269 | 2.0 | 9.0 | 0.00 | 0.00 | 0.00 | 44 | 1010.8 |
| 20260506012017 | 47 | 313 | 2.0 | 9.0 | 0.00 | 0.00 | 0.00 | 43 | 1010.7 |
| 20260506011536 | 47 | 288 | 3.0 | 9.0 | 0.00 | 0.00 | 0.00 | 43 | 1010.7 |
| 20260506011018 | 48 | 276 | 2.0 | 7.0 | 0.00 | 0.00 | 0.00 | 43 | 1010.6 |
| 20260506010518 | 48 | 0 | 2.0 | 7.0 | 0.00 | 0.00 | 0.00 | 43 | 1010.6 |
| 20260506010045 | 48 | 285 | 2.0 | 6.0 | 0.00 | 0.00 | 0.00 | 42 | 1010.5 |
| 20260506005517 | 48 | 251 | 3.0 | 11.0 | 0.00 | 0.00 | 0.00 | 41 | 1010.6 |
| 20260506005018 | 49 | 280 | 4.0 | 11.0 | 0.00 | 0.00 | 0.00 | 40 | 1010.4 |
| 20260506004532 | 49 | 272 | 3.0 | 11.0 | 0.00 | 0.00 | 0.00 | 41 | 1010.4 |
| 20260506004019 | 49 | 0 | 1.0 | 10.0 | 0.00 | 0.00 | 0.00 | 41 | 1010.3 |
| 20260506003547 | 49 | 311 | 3.0 | 10.0 | 0.00 | 0.00 | 0.00 | 41 | 1010.3 |
| 20260506003034 | 50 | 242 | 3.0 | 9.0 | 0.00 | 0.00 | 0.00 | 41 | 1010.2 |
| 20260506002515 | 50 | 286 | 4.0 | 10.0 | 0.00 | 0.00 | 0.00 | 40 | 1010.2 |
| 20260506002016 | 50 | 275 | 2.0 | 13.0 | 0.00 | 0.00 | 0.00 | 42 | 1010.1 |
| 20260506001532 | 50 | 275 | 4.0 | 13.0 | 0.00 | 0.00 | 0.00 | 39 | 1010.2 |
| 20260506001018 | 50 | 300 | 3.0 | 11.0 | 0.00 | 0.00 | 0.00 | 40 | 1010.1 |
| 20260506000516 | 50 | 255 | 6.0 | 11.0 | 0.00 | 0.00 | 0.00 | 41 | 1010.1 |
| 20260506000032 | 50 | 232 | 5.0 | 12.0 | 0.00 | 0.00 | 0.00 | 40 | 1010.1 |
| 20260505235518 | 50 | 269 | 5.0 | 16.0 | 0.00 | 0.00 | 0.00 | 39 | 1010.1 |
| 20260505235020 | 50 | 308 | 5.0 | 16.0 | 0.00 | 0.00 | 0.00 | 39 | 1010.1 |
| 20260505234555 | 50 | 272 | 3.0 | 9.0 | 0.00 | 0.00 | 0.00 | 40 | 1010.0 |
| 20260505234017 | 50 | 291 | 4.0 | 11.0 | 0.00 | 0.00 | 0.00 | 39 | 1010.1 |
| 20260505233516 | 50 | 295 | 5.0 | 14.0 | 0.00 | 0.00 | 0.00 | 39 | 1010.1 |
| 20260505233038 | 50 | 214 | 4.0 | 15.0 | 0.00 | 0.00 | 0.00 | 39 | 1010.1 |
| 20260505232514 | 50 | 269 | 7.0 | 15.0 | 0.00 | 0.00 | 0.00 | 38 | 1010.1 |
| 20260505232015 | 50 | 258 | 6.0 | 14.0 | 0.00 | 0.00 | 0.00 | 40 | 1010.2 |
| 20260505231535 | 50 | 284 | 3.0 | 12.0 | 0.00 | 0.00 | 0.00 | 39 | 1010.1 |
| 20260505231018 | 50 | 293 | 5.0 | 12.0 | 0.00 | 0.00 | 0.00 | 38 | 1010.1 |
| 20260505230518 | 50 | 342 | 4.0 | 18.0 | 0.00 | 0.00 | 0.00 | 39 | 1010.2 |
| 20260505230036 | 51 | 243 | 5.0 | 18.0 | 0.00 | 0.00 | 0.00 | 38 | 1010.2 |
| 20260505225518 | 51 | 272 | 7.0 | 18.0 | 0.00 | 0.00 | 0.00 | 41 | 1010.1 |
| 20260505225016 | 51 | 288 | 3.0 | 10.0 | 0.00 | 0.00 | 0.00 | 41 | 1010.3 |
| 20260505224536 | 51 | 282 | 5.0 | 13.0 | 0.00 | 0.00 | 0.00 | 38 | 1010.2 |
| 20260505224016 | 51 | 285 | 5.0 | 14.0 | 0.00 | 0.00 | 0.00 | 38 | 1010.1 |
| 20260505223523 | 51 | 342 | 6.0 | 16.0 | 0.00 | 0.00 | 0.00 | 39 | 1010.1 |
| 20260505223034 | 51 | 279 | 5.0 | 16.0 | 0.00 | 0.00 | 0.00 | 40 | 1010.1 |
| 20260505222518 | 51 | 330 | 7.0 | 16.0 | 0.00 | 0.00 | 0.00 | 39 | 1010.1 |
| 20260505222017 | 51 | 268 | 3.0 | 9.0 | 0.00 | 0.00 | 0.00 | 40 | 1010.1 |
| 20260505221535 | 51 | 239 | 3.0 | 12.0 | 0.00 | 0.00 | 0.00 | 38 | 1010.1 |
| 20260505221022 | 51 | 237 | 3.0 | 15.0 | 0.00 | 0.00 | 0.00 | 39 | 1010.0 |
| 20260505220518 | 51 | 275 | 7.0 | 16.0 | 0.00 | 0.00 | 0.00 | 37 | 1010.0 |
| 20260505220041 | 51 | 219 | 9.0 | 18.0 | 0.00 | 0.00 | 0.00 | 38 | 1010.0 |
| 20260505215518 | 52 | 292 | 9.0 | 18.0 | 0.00 | 0.00 | 0.00 | 37 | 1010.0 |
| 20260505215015 | 52 | 271 | 8.0 | 15.0 | 0.00 | 0.00 | 0.00 | 38 | 1010.1 |
| 20260505214557 | 52 | 313 | 7.0 | 15.0 | 0.00 | 0.00 | 0.00 | 38 | 1010.1 |
| 20260505214018 | 51 | 238 | 4.0 | 14.0 | 0.00 | 0.00 | 0.00 | 39 | 1010.0 |
| 20260505213515 | 51 | 308 | 6.0 | 19.0 | 0.00 | 0.00 | 0.00 | 38 | 1010.1 |
| 20260505213036 | 51 | 292 | 8.0 | 19.0 | 0.00 | 0.00 | 0.00 | 37 | 1010.2 |
| 20260505212518 | 51 | 304 | 8.0 | 19.0 | 0.00 | 0.00 | 0.00 | 39 | 1010.2 |
| 20260505212018 | 52 | 284 | 9.0 | 17.0 | 0.00 | 0.00 | 0.00 | 37 | 1010.2 |
| 20260505211537 | 52 | 279 | 5.0 | 18.0 | 0.00 | 0.00 | 0.00 | 39 | 1010.2 |
| 20260505211021 | 52 | 259 | 7.0 | 18.0 | 0.00 | 0.00 | 0.00 | 38 | 1010.3 |
| 20260505210519 | 52 | 240 | 7.0 | 14.0 | 0.00 | 0.00 | 0.00 | 39 | 1010.4 |
| 20260505210037 | 52 | 296 | 7.0 | 14.0 | 0.00 | 0.00 | 0.00 | 38 | 1010.2 |
| 20260505205518 | 51 | 244 | 7.0 | 14.0 | 0.00 | 0.00 | 0.00 | 39 | 1010.2 |
| 20260505205018 | 51 | 1 | 5.0 | 15.0 | 0.00 | 0.00 | 0.00 | 38 | 1010.3 |
| 20260505204542 | 51 | 350 | 3.0 | 15.0 | 0.00 | 0.00 | 0.00 | 44 | 1010.3 |
| 20260505204022 | 51 | 263 | 6.0 | 18.0 | 0.00 | 0.00 | 0.00 | 39 | 1010.3 |
| 20260505203518 | 51 | 296 | 5.0 | 18.0 | 0.00 | 0.00 | 0.00 | 41 | 1010.3 |
| 20260505203037 | 51 | 260 | 6.0 | 18.0 | 0.00 | 0.00 | 0.00 | 40 | 1010.4 |
| 20260505202520 | 51 | 295 | 6.0 | 19.0 | 0.00 | 0.00 | 0.00 | 40 | 1010.4 |
| 20260505202020 | 51 | 328 | 4.0 | 19.0 | 0.00 | 0.00 | 0.00 | 40 | 1010.3 |
| 20260505201537 | 52 | 200 | 4.0 | 19.0 | 0.00 | 0.00 | 0.00 | 43 | 1010.3 |
| 20260505201018 | 52 | 197 | 4.0 | 16.0 | 0.00 | 0.00 | 0.00 | 40 | 1010.3 |
| 20260505200522 | 52 | 249 | 6.0 | 16.0 | 0.00 | 0.00 | 0.00 | 38 | 1010.5 |
| 20260505200032 | 52 | 341 | 2.0 | 17.0 | 0.00 | 0.00 | 0.00 | 36 | 1010.3 |
| 20260505195518 | 53 | 268 | 3.0 | 21.0 | 0.00 | 0.00 | 0.00 | 37 | 1010.3 |
| 20260505195019 | 52 | 255 | 7.0 | 21.0 | 0.00 | 0.00 | 0.00 | 38 | 1010.3 |
| 20260505194543 | 52 | 263 | 5.0 | 16.0 | 0.00 | 0.00 | 0.00 | 38 | 1010.3 |
| 20260505194020 | 52 | 263 | 7.0 | 16.0 | 0.00 | 0.00 | 0.00 | 36 | 1010.3 |
| 20260505193519 | 52 | 244 | 6.0 | 15.0 | 0.00 | 0.00 | 0.00 | 35 | 1010.3 |
| 20260505193035 | 52 | 269 | 6.0 | 19.0 | 0.00 | 0.00 | 0.00 | 38 | 1010.2 |
| 20260505192518 | 52 | 280 | 5.0 | 19.0 | 0.00 | 0.00 | 0.00 | 37 | 1010.3 |
| 20260505192021 | 52 | 222 | 6.0 | 18.0 | 0.00 | 0.00 | 0.00 | 38 | 1010.3 |
| 20260505191534 | 52 | 283 | 5.0 | 13.0 | 0.00 | 0.00 | 0.00 | 38 | 1010.3 |
| 20260505191018 | 52 | 234 | 6.0 | 14.0 | 0.00 | 0.00 | 0.00 | 41 | 1010.4 |
| 20260505190518 | 52 | 201 | 6.0 | 14.0 | 0.00 | 0.00 | 0.00 | 39 | 1010.3 |
| 20260505190037 | 51 | 248 | 8.0 | 15.0 | 0.00 | 0.00 | 0.00 | 38 | 1010.5 |
| 20260505185520 | 52 | 228 | 7.0 | 17.0 | 0.00 | 0.00 | 0.00 | 35 | 1010.5 |
| 20260505185020 | 52 | 271 | 5.0 | 17.0 | 0.00 | 0.00 | 0.00 | 38 | 1010.4 |
| 20260505184535 | 52 | 251 | 8.0 | 17.0 | 0.00 | 0.00 | 0.00 | 39 | 1010.4 |
| 20260505184018 | 51 | 271 | 7.0 | 17.0 | 0.00 | 0.00 | 0.00 | 36 | 1010.4 |
| 20260505183519 | 51 | 287 | 10.0 | 17.0 | 0.00 | 0.00 | 0.00 | 35 | 1010.6 |
| 20260505183036 | 51 | 268 | 5.0 | 13.0 | 0.00 | 0.00 | 0.00 | 37 | 1010.4 |
| 20260505182522 | 52 | 271 | 7.0 | 13.0 | 0.00 | 0.00 | 0.00 | 37 | 1010.4 |
| 20260505182018 | 51 | 278 | 6.0 | 17.0 | 0.00 | 0.00 | 0.00 | 37 | 1010.4 |
| 20260505181537 | 51 | 244 | 6.0 | 17.0 | 0.00 | 0.00 | 0.00 | 38 | 1010.4 |
| 20260505181115 | 51 | 296 | 3.0 | 15.0 | 0.00 | 0.00 | 0.00 | 39 | 1010.6 |
| 20260505180515 | 50 | 271 | 6.0 | 15.0 | 0.00 | 0.00 | 0.00 | 37 | 1010.6 |
| 20260505180056 | 51 | 355 | 6.0 | 14.0 | 0.00 | 0.00 | 0.00 | 37 | 1010.4 |
| 20260505175519 | 50 | 284 | 6.0 | 12.0 | 0.00 | 0.00 | 0.00 | 38 | 1010.6 |
| 20260505175020 | 50 | 251 | 3.0 | 11.0 | 0.00 | 0.00 | 0.00 | 39 | 1010.5 |
| 20260505174550 | 50 | 259 | 6.0 | 12.0 | 0.00 | 0.00 | 0.00 | 39 | 1010.7 |
| 20260505174016 | 50 | 255 | 5.0 | 12.0 | 0.00 | 0.00 | 0.00 | 36 | 1010.6 |